Bankhead Lake Weather Center

Moon Phase Calendar



Bankhead Lake Water Level
Online Cameras

 


      

Current Conditions in Rock Creek
2/28/2024 11:55:06 PM

44°F
Feels Like 40
Clouds
Humidity
57%
Pressure
30.39"
Wind
7.4 mph (NNE)
Dew Point
30°F
UV Index
0/10 (Low)
Visibility
6 mi

Hourly Forecast

Date & Time Wed, Feb 28
11:00 PM
Thu, Feb 29
12:00 AM
Thu, Feb 29
1:00 AM
Thu, Feb 29
2:00 AM
Thu, Feb 29
3:00 AM
Thu, Feb 29
4:00 AM
Thu, Feb 29
5:00 AM
Thu, Feb 29
6:00 AM
Thu, Feb 29
7:00 AM
Thu, Feb 29
8:00 AM
Thu, Feb 29
9:00 AM
Thu, Feb 29
10:00 AM
Thu, Feb 29
11:00 AM
Thu, Feb 29
12:00 PM
Thu, Feb 29
1:00 PM
Thu, Feb 29
2:00 PM
Thu, Feb 29
3:00 PM
Thu, Feb 29
4:00 PM
Thu, Feb 29
5:00 PM
Thu, Feb 29
6:00 PM
Thu, Feb 29
7:00 PM
Thu, Feb 29
8:00 PM
Thu, Feb 29
9:00 PM
Thu, Feb 29
10:00 PM
Thu, Feb 29
11:00 PM
Fri, Mar 1
12:00 AM
Fri, Mar 1
1:00 AM
Fri, Mar 1
2:00 AM
Fri, Mar 1
3:00 AM
Fri, Mar 1
4:00 AM
Fri, Mar 1
5:00 AM
Fri, Mar 1
6:00 AM
Fri, Mar 1
7:00 AM
Fri, Mar 1
8:00 AM
Fri, Mar 1
9:00 AM
Fri, Mar 1
10:00 AM
Fri, Mar 1
11:00 AM
Fri, Mar 1
12:00 PM
Fri, Mar 1
1:00 PM
Fri, Mar 1
2:00 PM
Fri, Mar 1
3:00 PM
Fri, Mar 1
4:00 PM
Fri, Mar 1
5:00 PM
Fri, Mar 1
6:00 PM
Fri, Mar 1
7:00 PM
Fri, Mar 1
8:00 PM
Fri, Mar 1
9:00 PM
Fri, Mar 1
10:00 PM
Condition
Clouds

Clouds

Clouds

Clouds

Clouds

Clouds

Clouds

Clouds

Clouds

Clouds

Clouds

Clouds

Clouds

Clouds

Clouds

Clouds

Clouds

Clouds

Clouds

Clouds

Clouds

Rain

Rain

Clouds

Clouds

Clouds

Clouds

Clouds

Clouds

Clouds

Rain

Rain

Rain

Rain

Rain

Rain

Rain

Rain

Rain

Rain

Rain

Clouds

Clouds

Clouds

Clouds

Clouds

Clouds

Clouds
Temperature 43°F44°F43°F42°F41°F40°F38°F38°F38°F40°F42°F45°F48°F48°F51°F53°F52°F51°F49°F47°F48°F46°F45°F45°F45°F46°F47°F47°F47°F48°F47°F46°F46°F47°F47°F48°F49°F50°F50°F50°F49°F50°F50°F50°F50°F51°F51°F51°F
Feels Like 38°F40°F39°F38°F36°F34°F33°F32°F33°F34°F36°F40°F43°F45°F47°F49°F49°F48°F47°F45°F46°F43°F43°F44°F41°F41°F42°F42°F43°F45°F45°F45°F42°F46°F45°F45°F47°F48°F48°F48°F47°F50°F49°F49°F50°F50°F50°F50°F
Cloudiness 97%97%98%98%99%99%100%100%100%100%100%100%100%100%100%100%100%100%100%100%100%100%100%100%100%100%100%100%100%100%100%100%100%100%100%100%100%100%100%100%100%100%100%100%100%100%100%100%
Visibility 6 mi6 mi6 mi6 mi6 mi6 mi6 mi6 mi6 mi6 mi6 mi6 mi6 mi6 mi6 mi6 mi6 mi6 mi6 mi6 mi6 mi6 mi6 mi6 mi6 mi6 mi6 mi6 mi6 mi6 mi5 mi6 mi6 mi6 mi6 mi6 mi6 mi6 mi6 mi5 mi6 mi6 mi6 mi6 mi6 mi6 mi6 mi6 mi
Precipitation 0%0%0%0%0%0%0%0%0%0%0%0%0%0%0%0%0%0%0%0%12%48%96%80%76%88%0%0%0%13%52%92%84%96%100%100%100%100%100%100%100%80%80%80%28%32%27%40%
Humidity 56%57%57%57%59%60%56%55%56%49%44%39%37%37%35%35%42%45%54%60%61%77%83%84%85%84%80%80%76%75%83%92%95%92%96%95%95%95%95%96%97%96%97%97%98%98%99%99%
Dew Point 29°F30°F29°F29°F28°F27°F24°F23°F23°F22°F21°F22°F22°F23°F24°F26°F30°F30°F33°F33°F34°F38°F40°F40°F40°F40°F40°F40°F40°F40°F42°F43°F44°F45°F45°F46°F47°F48°F48°F48°F48°F49°F49°F49°F49°F50°F50°F50°F
Pressure 30.39"30.39"30.39"30.39"30.42"30.39"30.45"30.42"30.45"30.47"30.47"30.47"30.45"30.42"30.39"30.36"30.33"30.3"30.3"30.3"30.33"30.39"30.36"30.36"30.3"30.27"30.27"30.24"30.21"30.21"30.21"30.21"30.21"30.24"30.27"30.24"30.24"30.21"30.18"30.15"30.15"30.15"30.12"30.15"30.15"30.15"30.15"30.15"
Wind Speed 8.5 mph7.4 mph6.5 mph7.2 mph6.8 mph8.8 mph7 mph8.5 mph6.5 mph8.8 mph8.9 mph8.7 mph8.9 mph9 mph8.6 mph7.7 mph5.8 mph7.7 mph5.2 mph4.1 mph4 mph4.6 mph3.6 mph3.1 mph6.8 mph8.5 mph10.6 mph9.8 mph9.6 mph7.2 mph4.5 mph3.5 mph7.2 mph4 mph4.9 mph6 mph5.8 mph5.4 mph4.4 mph4.8 mph5.7 mph4.8 mph5.4 mph3.4 mph4.9 mph2 mph2.1 mph2.9 mph
Wind
Direction
15°
NNE
23°
NNE
19°
NNE
33°
NNE
15°
NNE
24°
NNE

N
35°
NE
35°
NE
45°
NE
38°
NE
36°
NE
43°
NE
48°
NE
55°
NE
58°
ENE
82°
E
77°
ENE
75°
ENE
69°
ENE
314°
NW
279°
W
46°
NE
33°
NNE
67°
ENE
101°
E
117°
ESE
123°
ESE
128°
SE
141°
SE
158°
SSE
97°
E
98°
E
115°
ESE
113°
ESE
94°
E
135°
SE
109°
ESE
113°
ESE
106°
ESE
90°
E
84°
E
99°
E
106°
ESE
103°
ESE
98°
E
24°
NNE
60°
ENE

Daily Forecast

Date High Low Precip. Humidity
Today
Feb 28

Rain
73 °F
43 °F
79%
91%
Thursday
Feb 29

Rain
53 °F
38 °F
96%
37%
Friday
Mar 1

Rain
51 °F
46 °F
100%
95%
Saturday
Mar 2

Rain
71 °F
51 °F
36%
66%
Sunday
Mar 3

Rain
68 °F
58 °F
83%
83%
Monday
Mar 4

Rain
67 °F
60 °F
96%
88%
Tuesday
Mar 5

Rain
63 °F
58 °F
100%
95%
Wednesday
Mar 6

Rain
71 °F
60 °F
89%
85%
Thursday
Mar 7

Clouds
72 °F
55 °F
72%
65%
Friday
Mar 8

Rain
75 °F
64 °F
100%
86%
Saturday
Mar 9

Rain
77 °F
59 °F
100%
51%
Sunday
Mar 10

Clouds
67 °F
49 °F
0%
47%
Monday
Mar 11

Clouds
73 °F
54 °F
0%
50%
Tuesday
Mar 12

Clear
73 °F
53 °F
0%
54%
Wednesday
Mar 13

Rain
63 °F
61 °F
100%
95%
Thursday
Mar 14

Rain
66 °F
61 °F
100%
88%

Temperature 8-14 Day Outlook



Precipitation 8-14 Day Outlook




Quick Links
Bankhead Lake News
Bankhead Lake Photos
Bankhead Lake Videos




About Us
Contact Us
Site Map
Search Site
Advertise With Us
   
www.BankheadLake.info
THE BANKHEAD LAKE WEBSITE

Copyright 2024, Lakes Online
Privacy    |    Legal